[轉播]世界12強複賽 台灣 0:2 墨西哥 9局上

作者
看板 Baseball
時間
留言 1275則留言,701人參與討論
推噓 484 ( 647推 163噓 465→ )
墨西哥更換投手:Carlos Bustamante(RHP) 台灣隊第3棒:王柏融 NP1 146KM S NP2 149KM FO 一壘方向滾地球 遭一壘手攔住 傳給補位投手 封殺打者 1OUT 台灣隊第4棒:林泓育 NP3 148KM S NP4 133KM B 偏外角 NP5 133KM S NP6 137KM B 挖地瓜 NP7 150KM F 本壘後方界外球 NP8 150KM F 一壘看台方向界外球 NP9 136KM AO 右外野高飛球 遭到接殺 2OUT 台灣隊第5棒:陳俊秀 NP10 147KM S NP11 132KM B 挖地瓜 NP12 148KM S 外角邊邊角角 主審撿了 NP13 135KM K 揮棒落空 遭到三振 3OUT -- ※ 發信站: 批踢踢實業坊(ptt.cc), 來自: 36.236.117.7 (臺灣) ※ 文章網址: https://www.ptt.cc/bbs/Baseball/M.1573451100.A.DA4.html ※ 編輯: gay8219 (36.236.117.7 臺灣), 11/11/2019 13:46:41
1Fqewrtu: 加油啊!!!!!!!!!!!!!!!!!!!!!!!!!! 11/11 13:45
2Fampicillin: 投手已經很強了,拜託打者... 11/11 13:45
3Fimticba: 加油 11/11 13:45
4FEric0605: 最後了 拜託 11/11 13:45
5Fterry66: B2B 樓下台幣3000 11/11 13:45
6Fje321654: 逆轉嘍 11/11 13:45
7FTS28: 滾地 11/11 13:45
8Flaughing: 沒在 的 11/11 13:45
9Fmushroom0857: 反攻 11/11 13:45
10FDuncanZ: 得一分也好 加油 11/11 13:45
11Fwl02433799: 柏融!! 11/11 13:45
12Fjoohsieh: 加油!! 11/11 13:45
13Fpriston: 無差別鳥滾打線 快打我臉啊 11/11 13:45
14Fkinyo0920: 大王加油 11/11 13:45
15FSlamKai: 六搶一倒數 M3! 11/11 13:45
16Fmjwang3: 加油呀 11/11 13:45
17Fivery2266: 集氣呀! 11/11 13:45
18Faa9510883: hohoho 11/11 13:45
19Fzxc123519: LM連線夾一個高宇杰 加油!!! 11/11 13:45
20Fkanata0723: 加油啊 大家 11/11 13:45
21FROCKCAI: 再信一波 11/11 13:45
22Fting445: 打線拜託.. 11/11 13:45
23Fchenstar1234: 聽到旋律就火大 11/11 13:45
24Fseanyen: 逆轉啊!!!!!!!!!! 11/11 13:45
25Fkotetsu: 相信大王 11/11 13:45
26Fjamesa12: 壘上有人恰恰上 11/11 13:45
27Feee60109: 噓文救台灣 11/11 13:45
28Fneo19: 誰才能關鍵一擊 11/11 13:45
29Fggian123: 加油啊 11/11 13:45
30Farnold61105: 這局三個吱吱 跟上一局三個爪爪比較一下 11/11 13:45
31Fh89815: 拜託 11/11 13:45
32Fzxzx0521: 原來中職是投手聯盟 11/11 13:45
33Fsdd4896: 加油啊! 11/11 13:45
34FSHYeh63: 加油 11/11 13:45
35Fckccccc8: 乾給我逆轉喔 11/11 13:45
36FKyameron: M3 11/11 13:45
37Fguoyoung: 該醒了吧 11/11 13:45
38Fa182739: lm四棒海該醒了吧 11/11 13:45
39Faz755181: RRRRRRRRR 11/11 13:45
40Ffujioqq: 這局開始有碰到球就算我們贏喔 墨西哥聽好了 11/11 13:45
41Fweido666: 拜託加油啊 11/11 13:45
42Fwest555: 吃鍋貼當午餐啦 11/11 13:45
43Fi4303348: 加油加油 11/11 13:45
44Fbelucky: 鍋貼起鍋 11/11 13:45
45Fsdfsonic: 這局逆轉樓下1000P 11/11 13:45
46FDONNY: 氣勢該給我們了吧!!! 11/11 13:45
47Ff22313467: 下三棒 我覺得... 11/11 13:45
48Fa80518520: 加油啊! 11/11 13:45
49Farnold3: 應該要輸了 11/11 13:45
50Ffan60229: 逆轉逆轉 11/11 13:45
51Fa3330813: 拜託加油啊!!! 11/11 13:45
52Fujythi: 484太冷不會打 11/11 13:45
53Ftrylin: 先猜三上三下 11/11 13:45
54FjacksonII: 柏融哥哥,來一發吧 11/11 13:45
55Fkartta080197: 中心打線加油rrrrrrrrrrr 11/11 13:45
56Fvictaria: 加油啊!! 11/11 13:45
57Fapestage: 關鍵一擊 本屆沒有 11/11 13:45
58Foutzumin: 沒在怕DER 來一隻阿幹 11/11 13:45
59Ftsuna10boss: 加油 11/11 13:45
60Fsheena0318: 集氣 11/11 13:45
61Fampicillin: 投手群根本沒什麼好挑剔的了... 11/11 13:45
62FJackY4028: 逆轉阿阿阿 11/11 13:45
63Fhighwo: 加油 11/11 13:45
64Fsnow1502001: 好好選球啊!!!!! 11/11 13:45
65Flin880905: 加油 11/11 13:45
66Fchenstar1234: 好 11/11 13:45
67Fforcebear: 幫五樓集氣 11/11 13:45
68Fcookiey: 九局得分gogogo 11/11 13:45
69Frickyjessy: 逆轉 11/11 13:45
70Fnuc1earsub: 8局三個打者同對,9局三個打者也同隊XD 11/11 13:45
71Farthurhsu123: 承認投手進步了很難嗎 11/11 13:45
72Fdarkduck0117: 大王要全壘打了 11/11 13:45
73Fannheilong: 集氣!!!!!!!!!!!!!!!!!!!!!!!!!! 11/11 13:45
74Fpchome135790: 該得分了吧! 11/11 13:45
75Fkero0331: 4棒海轟吧 11/11 13:45
76FBichiB7b7: 這局沒三上三下我就滿足了 11/11 13:45
77Fsummercat: 小玉轟個..拜託 11/11 13:45
78Fhiwilson: 錢 11/11 13:45
79Fleonjapan: 墨西哥口味大鍋貼 吃飽飽 11/11 13:45
80Fjustsofa: 要哭了 投守備都好 打擊衝啊 11/11 13:45
81Fsumo: LM要坦了 這棒次XD 11/11 13:45
82FDDMurakumo: 打線加油 拜託了 11/11 13:45
83Ffire1124: 大王加油 11/11 13:45
84Frachihwei: 大王扛一隻拜託 11/11 13:45
85Fningpig: 拜託逆轉啊!加油! 11/11 13:45
86Fdora6142: 今日投手沒話說!打線快點打大家臉阿!加油!!! 11/11 13:45
87Fqqyi: 逆轉吃素一個禮拜 11/11 13:45
88Fbelucky: 這時間吃鍋貼 11/11 13:45
89Fe8177919e: 吃鍋貼囉 11/11 13:45
90FSUZUKI5566: 集氣!!! 11/11 13:45
91Fwayne971: 最後一局大反攻吧 11/11 13:45
92Fnathan4074: 加油 11/11 13:45
93Fhowardq44: #沒再得分的 拜託打我臉拉QQ 11/11 13:45
94Fningzea: lm打線串一波 11/11 13:45
95Fbigcocksuper: 加油 11/11 13:45
96Fjkokpcu: 要被完封了嗎QQ 11/11 13:45
97Fmusicaledio: 我現在要得分 我現在要得分 11/11 13:45
98Fsustainer123: M3 11/11 13:45
99FCmPunk666: 來 逆轉 樓下三樓100P 推一波 逆轉勝 11/11 13:45
100Fg8429310: 這局得三分就好 不用太多 11/11 13:45
101Fsy1995: 先猜13球結束這場比賽 11/11 13:45
102Fannielaurie: 整場兩邊都三支安打 只是對面有支大支的 慘 11/11 13:46
103Fmonkeydpp: [email protected]@ 11/11 13:46
104Fjipq6175: 猜九上追2九下被再見 11/11 13:46
105Fp840101: 拜託得分!!!!!!!!! 11/11 13:46
106Fsweet16kate: 逆轉吧!!! 11/11 13:46
107Fmsarthur: 打爆老墨啊 11/11 13:46
108Fmwddgg: 大膽預測 得1分 吃鍋貼 11/11 13:46
109Fallyp7985: 大王先上壘啊啊啊 11/11 13:46
110Fyi9475: 該逆轉了吧 11/11 13:46
111Fwsxcdsvv: 高宇杰打全壘打了 11/11 13:46
112Ftommyn114: 瑞安快上 11/11 13:46
113Fhoward1997: 集氣 11/11 13:46
114Fq119311: 鍋貼準備 11/11 13:46
115Fjohnson44: 樓下快發祭品啦! 11/11 13:46
116Fwhj0530: 11/11 13:46
117Fsue5566: 大王加油阿 11/11 13:46
118Ftony66134: gggggggggg 11/11 13:46
119Fchiachia023: 我想看逆轉! 11/11 13:46
120Fmk000000: 集氣 11/11 13:46
121FLeonKuo: 加油啊QQ 11/11 13:46
122Fremix110525: 別再讓王打了好不好 有夠失望的 11/11 13:46
123Fpiolet: 來一發啊 11/11 13:46
124Fa925a05: 先猜有安打但是沒得分 11/11 13:46
125FKelite: 不選陽岱鋼就是個笑話 11/11 13:46
126Faboutc: 加油 11/11 13:46
127Faikotoba: 沒在打的 11/11 13:46
128Fzaknafein: 沒在揮棒的 11/11 13:46
129Fknml: 得個一分也好啊 11/11 13:46
130Fpriston: 來個台灣尚勇好嗎 11/11 13:46
131Fsdfsonic: 逆轉 11/11 13:46
132FCastle88654: 愛將得分啊啊啊 11/11 13:46
133Flohok050301: 協尋瑞安面對LM打線 11/11 13:46
134Fbasala5417: 逆轉勝啦 11/11 13:46
135Fkt00091: 集氣 11/11 13:46
136FEQUP: 大王靠你了嗚嗚嗚嗚嗚嗚 11/11 13:46
137Fmax853211: 不可能 11/11 13:46
138Fstocktonty: 猜得一分吃鍋貼 11/11 13:46
139Fchiachiafans: 算我求你們 得個分好嗎? 11/11 13:46
141Fkakoiee: 小胖:(吊兒郎當) 11/11 13:46
142Fsumo: 輪三四五棒 沒什麼好說了 11/11 13:46
143FMochizou: 好ㄘ 11/11 13:46
144FSuperBMW: 王柏融刷個數據吧 反正沒希望了QQ 11/11 13:46
146Fhugo123: 大王來個達波! 11/11 13:46
147Fhomway: 2B BB HR 結束 11/11 13:46
148Fje321654: 3分就好一個三分球而已 11/11 13:46
149Fjackwula9211: 至少得一分好嗎 11/11 13:46
150Ftonyginobily: 逆轉 11/11 13:46
151Fching7410: 我猜等等兩個殘壘 然後沒得分 11/11 13:46
152Fcream4260: 最後的機會了 11/11 13:46
153Fibox5566: 鍋貼加熱 11/11 13:46
154Fandy0070205: 逆轉啊! 11/11 13:46
155FDaniel4maste: 誰能扛起後鋒恰時代的神主牌呢 11/11 13:46
156Fssccot: 鍋貼來啦 11/11 13:46
157Fsnow1502001: 一定有9下 11/11 13:46
158Fyao1998: 大王發動攻勢吧 11/11 13:46
159FPULIMAN001: 逆轉啊啊啊啊 11/11 13:46
160Fweido666: 台灣加油 11/11 13:46
161FHOLYXXXX: 差不多了 上班嘍 11/11 13:46
162Fseafood520: 敢不敢用瑞安關門 11/11 13:46
163Fr51303: 不一定哦 Cole可能會自己打全壘打 诶? 這不是國聯? XDDDD 11/11 13:46
164FTimmy21: 九上爆氣得三分 九下飛刀完美關門 選我正解 11/11 13:46
165Fnuc1earsub: 八上兄弟,九上LM 11/11 13:46
166Fa100205069: 投手表現的很好了 打者可以醒了嗎 11/11 13:46
167Froygg: 得兩分一個月不約炮 11/11 13:46
168Fspicy305: 打線醒醒吧!!!! 11/11 13:46
169Fnewshooter: 對方也會派CLOSER關門,你當國外CLOSER水貨喔... 11/11 13:46
170Fpeterlee97: 如果逆轉 11月底我在臺北車站大廳發100份雞排 11/11 13:46
171Falexyuya: 會逆轉嗎 11/11 13:46
172Fdaniel1344: 雙方安打數一樣 但人家有長打 11/11 13:46
173FOrzXXXqoo: 一分都沒有,投手再強也不會贏...該逆轉了吧 11/11 13:46
174Fwinche30526: 拜託逆轉 11/11 13:46
175FEvoque: 呼叫三井壽 11/11 13:46
176Fqsc787044: 明天要吃韓式鍋貼囉。 悲慘 11/11 13:46
177Fxian: B2B2B 11/11 13:46
178Fsummercat: 贏了我斷食48小時 11/11 13:46
179Fleonjapan: 鍋貼~~~~庫魯庫魯~~ 11/11 13:46
180FBenbenyale: 三分砲! 11/11 13:46
181Ffujioqq: 哪有同隊 有一個是火腿的好不好 11/11 13:46
182FYdarvish: 集氣啊~~~~ 11/11 13:46
183Fchong17: 預賽在台灣都晚上比賽,現在打者白天比賽昏昏沉沉 11/11 13:46
184FLAKobeBryant: 大王先來一發啊 11/11 13:46
185Fsamuncle123: 得個一分 可以嗎? 11/11 13:46
186Fntusimmon: 派弱投出來吧 拜託 11/11 13:46
187Ftomo1026: 手舉起來集777777777777777777777777777777777777777啦 11/11 13:46
188Fg8429310: 九下佛刀關門 11/11 13:46
189Fchihchingho: 換投 11/11 13:46
190Fhyde711034: 在日本打連比賽內容都像日職 11/11 13:46
191Fsospeter: 不重壓韓國,每場低比分落敗,東奧88 11/11 13:46
※ 編輯: gay8219 (36.236.117.7 臺灣), 11/11/2019 13:46:52
192FMaydayx5566: 噓文救中華 11/11 13:46
193Fbryan1802016: 該醒了 11/11 13:46
194Fmarvelous13: 炸他啊 11/11 13:46
195Fj20090323: 求逆轉拜託託託託託 11/11 13:46
196Fbnb89225: 沒有大師兄就沒有HR 11/11 13:46
197Fwow999: 最後一局 11/11 13:46
198FBenbenyale: 逆轉勝 鍋貼拿去退 11/11 13:46
199Famercedes: 求逆轉 拜託............ 11/11 13:46
200FMohism: 王柏融好爛 11/11 13:46
201Fmagicbook123: 電風扇 11/11 13:46
202Fdowattw2005: 選你希望中華爆氣 11/11 13:46
203Fericf129: 逆轉就發錢 11/11 13:46
204Fnuc1earsub: 一隊負責一局 11/11 13:46
205FCynthia17: 投手拼成這樣了 打線快醒醒啊 11/11 13:46
206Fseafood520: 怕 11/11 13:46
207Fwei0204: 逆轉樓下100P 11/11 13:46
208FJoshBell: 這隻墨聯成績不錯 11/11 13:46
209Fdowntown: 台灣小朋友:拿冠軍很難? 11/11 13:46
210Fskyki: 集氣 逆轉 11/11 13:46
211Fsdd815345: 瑞安呢? 11/11 13:46
※ 編輯: gay8219 (36.236.117.7 臺灣), 11/11/2019 13:47:46
212Ftue678: 坦完 明年6搶1就換別人去打 也很不錯 lm整隊專心備戰球季 11/11 13:46
213Fzxc123519: 打到0z吧 拜託!!!! 11/11 13:46
214Fjamessytba: 快醒醒好嗎? 11/11 13:46
215Fwiwi12345678: 來關門囉 88888 11/11 13:46
216FMondesi2006: 嘿嘿嘿 11/11 13:46
217Ftatle1992: 這局追平或逆轉樓下10000P 11/11 13:46
218Fjoywo: 就算這局三分 下半局我也沒有信心 XDDD 11/11 13:46
219FJH4748: 加油啊!相信臺灣! 11/11 13:46
220Fedcp9928407: 叫瑞安出來啊 11/11 13:46
221Ftnl0716: 逆轉的我給下面10樓100p 11/11 13:46
222Fheroprince: 加油啊!!!!! 11/11 13:47
223Fhbkgod619: 三上三下 下班 準備享受日本夜生活! 11/11 13:47
224Fheroboy: 菲律賓撞球好手 11/11 13:47
225FAABCD: 不把小玉換掉就等輸吧 11/11 13:47
226Fkev5in127: 加油啊 11/11 13:47
227Fprintscree: 反攻啦 11/11 13:47
228Ftending: 接下來看打者了 11/11 13:47
229FRose5566MVP: 先來個滾安吧 11/11 13:47
230Fruby5566: 加油~~ 11/11 13:47
231FnO25948: 鍋貼已經吃完了 11/11 13:47
232Fkicker: 陽岱鋼至少還有期待 這些中職打者..... 唉 11/11 13:47
233Fprtscn: 大王加油QQ 11/11 13:47
234Fshindoragon: 噓文救中華 11/11 13:47
235Fbelucky: 鍋貼酥酥脆脆的口感很棒 11/11 13:47
236Fwasiayang: 未看先猜GO FO K 11/11 13:47
237Fs6525480: 又紅中!又紅中! 11/11 13:47
238Frickyjessy: 玉 11/11 13:47
239Fst88148: 加油 11/11 13:47
240Fbryan1802016: 王你先安打 11/11 13:47
241Fwhitecut: 來 快逆轉 11/11 13:47
242FLAKobeBryant: 紅中沒打 11/11 13:47
243Fking665714: 羅德球迷心裡聽倒這首會怎麼想 11/11 13:47
244Fj32072: 小玉乖乖 11/11 13:47
245FMichal1204: 祭品祭起來!!! 11/11 13:47
246Fa129634: 大家可以回家了 有種打我臉 11/11 13:47
247FKitakami: 墨西哥笑你 11/11 13:47
248FQillathe: 加油啊 11/11 13:47
249Fivery2266: 跪求逆轉,逆轉吃素一個月! 11/11 13:47
250Feklcxo: 集氣~ 11/11 13:47
251Fje321654: RRRRRR 11/11 13:47
252FMessi100: M3 11/11 13:47
253FMalpais: 這終結者純墨聯的 11/11 13:47
254Fcream4260: 唉 11/11 13:47
255Fdolra: 轟啊,轟啊~ 11/11 13:47
256FHiSop: ================台灣的至寶 不意外 笑死================ 11/11 13:47
257Ftue678: 比較重要 奧運沒什麼重要 11/11 13:47
258Fsugoi5566: 選一個 11/11 13:47
259Flovejamwu: 破蛋好嗎...哭 11/11 13:47
260FHiddenGuy: M2 11/11 13:47
261FBenbenyale: 阿 可惜 11/11 13:47
262FYanOH: 快打 11/11 13:47
263Fklose41: 逆轉吧! 11/11 13:47
264Fpengjoker: 招牌滾 11/11 13:47
265FWojnarowski: GO 11/11 13:47
266Fmagicbook123: 熟悉的中華隊 打線貧弱 11/11 13:47
267FSaza: 滾 11/11 13:47
268Fppman168no1: 加油!!!!!!!!!!!!! 11/11 13:47
269Fwsxcdsvv: 第一球紅中繼續不揮 11/11 13:47
270Fstocktonty: 承認墨西哥投手進步很難? 11/11 13:47
271Fbnb89225: 以前有大師兄掩護讓我們以為我們打擊進步很多 11/11 13:47
272Fprintscree: …… 11/11 13:47
273FFuryX: M2 11/11 13:47
274Fmsun: 大王球 11/11 13:47
275Fjoeman449: 放寬心看球,但希望可以拉一點氣勢明天嗑泡菜 11/11 13:47
276Fchihchingho: GO 1out 11/11 13:47
277Fwpd: 招牌滾 11/11 13:47
278Fseafood520: 打得強都沒用 11/11 13:47
279Fmomo28: 鳥滾 11/11 13:47
280Fbryan1802016: 哀... 11/11 13:47
281Fhyde711034: M2 11/11 13:47
282FFKUMD: 墨的守備真的沒話說 11/11 13:47
283Falwaysstrong: ..... 11/11 13:47
284Finfoa42: M2 11/11 13:47
285Fhenry180: 招牌 11/11 13:47
286Fskycitadel: 鍋貼起鍋 11/11 13:47
287FSuperBMW: 大王球 滾!! 11/11 13:47
288Fkai880323: M2 11/11 13:47
289Fdaniel1344: 滾起來 11/11 13:47
290Fbleachdie: 滾穩 11/11 13:47
291Ftomo1026: 靠杯... 11/11 13:47
292Fknml: gg 11/11 13:47
293FRoystu: M2 11/11 13:47
294Finschool: 恩.. 11/11 13:47
295FSlamKai: 滾滾大王GO 11/11 13:47
296Fsawada: 打線醒醒啊! 11/11 13:47
297FKreen: GO 11/11 13:47
298Fhu6111: 打得不錯 11/11 13:47
299Frickyjessy: 熟悉 11/11 13:47
300FSTi2011: M2 11/11 13:47
301Fzebra0301: 招牌 11/11 13:47
302Fg8429310: 滾玉… 11/11 13:47
303Ff22313467: 滾地大王 11/11 13:47
304Flml99: 招牌大王 11/11 13:47
305Flittlegreen: 鳥 11/11 13:47
306Fa39452011: 滾 11/11 13:47
307FLAKobeBryant: 滾滾滾滾滾滾滾滾滾滾 11/11 13:47
308Fchaobii: 招牌 11/11 13:47
309Fprtscn: 墨西哥守備好穩 11/11 13:47
310Fwow999: M2 11/11 13:47
311FLuckyTrump: 滾地大王 11/11 13:47
312Faether982: 完美打線 正常發揮 11/11 13:47
313Fe8177919e: GG真的要鍋貼囉 11/11 13:47
314Fdululu: 慘阿 11/11 13:47
315Fsame60710: 沒一個投手直球比145慢... 11/11 13:47
316Ftrylin: 小玉球 媽的糞 11/11 13:47
317FSatoman: 招牌一份wwwwww 11/11 13:47
318Fft090646: 鳥滾 11/11 13:47
319Fderekg8: 沒在得分的 11/11 13:47
320Fericf129: 招牌一份 11/11 13:47
321FColantoni: 招牌來一份 11/11 13:47
322Ftimnice: 招牌 11/11 13:47
323Fkoyosky: GO 11/11 13:47
324Ffujioqq: 滾吧 滾吧 11/11 13:47
325FRose5566MVP: 雖敗猶榮 11/11 13:47
326FKelite: 招牌內滾 11/11 13:47
327Fphoenix927: GG 11/11 13:47
328Fassassinbat: 加油!!!!! 11/11 13:47
329Ftheropod: 守的漂亮 11/11 13:47
330Fnewcsie68: 誰吃鍋貼的 中午都沒跑去吃鍋貼的說 11/11 13:47
331Fchiayu0722: 衰 11/11 13:47
332Fddreamer: M2 11/11 13:47
333Fraysbuck: 滾 11/11 13:47
334FJoshBell: 這球很扎實 11/11 13:47
335Fapestage: 標準小玉球 11/11 13:47
336Fzihweiwei: 小....王、 11/11 13:47
337Ftransfight: 中職打者就只會出怪聲 檢討投手 11/11 13:47
338Fneo19: 至少破蛋吧 11/11 13:47
339Fwayne61: 靠你了大王 11/11 13:47
340Fkevin45632: 吃鍋貼囉 11/11 13:47
341FAtenWang: 差不多了 11/11 13:47
342Fpaul810928: 小玉這場都打蠻強的 11/11 13:47
※ 編輯: gay8219 (36.236.117.7 臺灣), 11/11/2019 13:50:47
343Fa39452011: 滾 11/11 13:47
344Fedcp9928407: 逆轉我身家給樓下 11/11 13:47
345FRanceTsai: 結果人家才是真 打擊聯盟 我們投手表現的很好 還是被 11/11 13:47
346Fdarvipon: M2 11/11 13:47
347FRanceTsai: 他們逮到一點機會得分 11/11 13:47
348FSlamKai: 六搶一 我們來囉 11/11 13:47
349FBichiB7b7: ゴロ 11/11 13:47
350Fnewage5566: 第一球沒打 11/11 13:47
351Fje321654: 用點弱的強襲球 11/11 13:47
352Fsustainer123: 招牌 11/11 13:47
353Fouy2314: 第一球不打打這球... 11/11 13:47
354Fedward801022: 一壘真的銅牆鐵壁 11/11 13:47
355Fcodayadai: 又要鍋貼了... 11/11 13:47
356Fbryan1802016: 加油歌還沒唱完就出局了 11/11 13:47
357FDuGoGo: ... 11/11 13:47
358Fsawada: 兩分不能吃鍋貼啦 11/11 13:47
359FTS28: 招牌(滾地)鍋貼 11/11 13:47
360FMontrealais: 招牌滾 11/11 13:47
361FHANKYU: 就是打不穿阿 11/11 13:47
362Fyuyustacy: 這打擊真的猛 11/11 13:47
363Fwilliam85: 來個B2B 11/11 13:47
364FMuzucheez: 招牌滾先來一份 11/11 13:47
365Fdululu: B2B就追平 11/11 13:47
366Fmayday8888: 老闆 辣味鍋貼15個 玉米濃湯1碗 11/11 13:47
367Fj20090323: 小胖炸他! 11/11 13:48
368Fssivart: 熟悉的CT最對味 11/11 13:48
369FAABCD: 趕著去訂王將給大家吃 11/11 13:48
370FHiSop: ================這咖在日本專打滾的 很配合日本場地====== 11/11 13:48
371Fo22117417tw: 有大師兄該有多好 11/11 13:48
372Fj32072: 穩啦 晚上吃法餐 11/11 13:48
373Ffujioqq: 小球兒滾滾 11/11 13:48
374Fchong17: 中華隊太習慣晚上比賽了,白天都昏昏沉沉 11/11 13:48
375Flittlegreen: 來隻大的 11/11 13:48
376Fks99flame: 有打都比站著三振好 11/11 13:48
377Fctes940008: 差不多了 11/11 13:48
378Fmagicbook123: 滾地出局 吃鍋貼 11/11 13:48
379Fsustainer123: 今天每日任務一安完成 11/11 13:48
380Fcallwayne: 投手群很夠力了 打者群真的...... 11/11 13:48
381Ftriplebaka: 鍋貼預告 11/11 13:48
382Faa97531aa: 888888888 11/11 13:48
383Fnuc1earsub: 八上兄弟,九上LM 11/11 13:48
384Fkicker: 紅中再不選陽啊 以為中職打者多會打 11/11 13:48
385FKyameron: M2 11/11 13:48
386Ftransfight: 中職打者就只會出怪聲 要不要解散算惹 11/11 13:48
387Fzxsx811: 還好中午已經吃過鍋貼惹 11/11 13:48
388FOceanAdin: 000000000000000000000000000000000000000000000000 11/11 13:48
389Fprtscn: 喇叭組一直破音 11/11 13:48
390Fadventurer: 我受不了了...... 11/11 13:48
391Fbaseballbin: 第一球放 11/11 13:48
392Fi9100: 火腿打不好我可以接受...打這球真的等級太低 11/11 13:48
393Fstephenliu: 這球守得太棒 11/11 13:48
394FDriveKing: 好準阿 11/11 13:48
395FChrisPaul03: 我們要感恩 還好沒被無安打 11/11 13:48
396Fdonny5111620: 海水推了 11/11 13:48
397Fa09898966656: 轟一顆慢跑一下 輸也輸好看一點 11/11 13:48
398Flmf770410: 掰掰 打線太爛 11/11 13:48
399FVincent8026: 紅中這個角度帥 11/11 13:48
400FBenbenyale: 滋滋滋滋滋 11/11 13:48
401Fweido666: 兩分沒鍋貼好嗎 一群菜雞 11/11 13:48
402Fcream4260: 鍋貼準備好了... 11/11 13:48
403Fstocktonty: 會不會賽後說不習慣早上比賽 11/11 13:48
404Fhassmetou: 世界的小玉 11/11 13:48
405Fchang505: 沉重 11/11 13:48
406Fwiwi12345678: 連慢跑的機會都沒有,哈哈 11/11 13:48
407FOo5566: 新球迷還在陽XD 11/11 13:48
408Fsamuncle123: 投手長的好像小摩里納 11/11 13:48
409FKreen: 泡菜十個、原味五個,再來一杯玉米濃湯~ 11/11 13:48
410FAABCD: 玉粉又要說打的不錯了 11/11 13:48
411Fwei09955104: 墨西哥是不是偷偷把一壘包移走啊 11/11 13:48
412FVinceDunk: 日本 韓國賽程都是晚場的 11/11 13:48
413Fbelucky: 投手辛苦了 你們心力都累我知道 11/11 13:48
414Fs984421: 笑死 台灣至寶 11/11 13:48
415Fkashnes: 小胖一棒洗白 11/11 13:48
416Ftowierc: 招牌滾 打得真棒 11/11 13:48
417Fiimk0918: 不選陽到底是為啥 11/11 13:48
418Fmsarthur: 先上壘! 11/11 13:48
419Faugsammy: 下屆再見 11/11 13:48
420Fpriston: 鍋貼熱好囉~~~~~~~~~~~~~~ 11/11 13:48
421Fwpd: 中午比賽找二軍王許基宏搞不好還比較強 11/11 13:48
422Fjkl852: 3a的救援投手 11/11 13:48
423Fg8429310: 吱吱連線 得三分就好 11/11 13:48
424FMessi100: 怒吃一份招牌鍋貼! 11/11 13:48
425FVincent8026: 喇叭破音阿 11/11 13:48
426Fprtscn: 放過這個肉包球 11/11 13:48
427Ffujioqq: 中華隊是不是二進制阿 11/11 13:48
428Fstocktonty: 這麼甜的變化球也不揮 11/11 13:48
429FPedro74: 加油啊! 11/11 13:48
430Fmothforever: 怎麼還是覺得沒很積極進攻 一直放放放 11/11 13:48
431Fo22117417tw: 濃 11/11 13:48
432FNumber9527: 掰掰 11/11 13:48
433Fy772938: 3支安打大王一支反觀爪 11/11 13:48
434Fedward801022: 樓上選訓委員嗎?怎麼知道不選陽? 11/11 13:48
435Fivery2266: 先追平再說! 11/11 13:49
436Fallyp7985: 都沒打 11/11 13:49
437Fneohung: 拿香 11/11 13:49
438Fdaniel1344: 老墨打韓國加油啊 11/11 13:49
439Fbeautyptt: 給這一場的投手拍拍手 江少慶不要失望自責 11/11 13:49
440FHamiltion22: 3轟的233只會滾滾滾 11/11 13:49
441Frickyjessy: 真的是沒有期待感QQ 11/11 13:49
442Fjerrychien06: 都不打是怎樣 等保送嗎 11/11 13:49
443FMagicChang: 鍋貼已擺桌上 11/11 13:49
444Fmioloveme: 可以去隔壁迪士尼玩啦現在去應該趕得上看遊行 11/11 13:49
445Fj32072: 中華隊 打的不錯~ 棒棒 11/11 13:49
446Fdragon49er: 打這麼爛有資格吃鍋貼嗎 11/11 13:49
447Fje321654: 我不要鍋貼!! 11/11 13:49
448Fa39452011: 笑死人 總冠軍賽一局可以拿十分 國際賽九局0分 11/11 13:49
449Flovejamwu: 白天太陽太大 晚上燈光太暗? 11/11 13:49
450Fjipq6175: 超甜的不打? 11/11 13:49
451Ftwobrother20: 拜 4年後再見 11/11 13:49
452Fk1400: 加油啊! 11/11 13:49
453FDA40: 現場的小號行不行... 11/11 13:49
454Fsilverstris: 鍋貼鍋貼鍋貼鍋貼鍋貼 台北隊 11/11 13:49
455Fprtscn: K味濃 11/11 13:49
456FSlamKai: 這輪坐六望五搶四 掰掰 11/11 13:49
457Fkeepbusy: 又要吃鍋貼了QQ 11/11 13:49
458FIsrafil: 涼了 11/11 13:49
459Fmonkeydpp: 台灣國要輸了 11/11 13:49
460Fbelucky: 投手有資格吃阿 打者吃香蕉去吧 11/11 13:49
461Ffujioqq: 000000001 000000000 11/11 13:49
462Fdidarlook: 沒有烏鴉叫了 11/11 13:49
463Fs6525480: 大怒灌可以先開嗎 我缺氧 11/11 13:49
464Fchargebro: 可惜 11/11 13:49
465Fgtrx: 鍋貼好吃^Q^ 11/11 13:49
466Fa10027395: 打者加油啊! 11/11 13:49
467Fwei09955104: kkkkkkkkkkkkk 11/11 13:49
468Fpriston: 失投球都掌握不到 輸了活該啦 爛打線 11/11 13:49
469Fsleepmilk: 大家加油 11/11 13:49
470Fa8330028: 墨西哥小文 11/11 13:49
471Fking665714: 高球在那邊揮 11/11 13:49
472Fg8429310: 得三分就好 不用太多 11/11 13:49
473Fluisak: 這球可惜了 11/11 13:49
474FSuperBMW: QQQQQQQQQQ 11/11 13:49
475Ffujioqq: 二進制的中華打線 厲害惹 11/11 13:49
476Fcookiey: 150 11/11 13:49
477Feee60109: K味濃 11/11 13:49
478Fbear10272002: 我要點韓式辣味 11/11 13:49
479FStarTouching: 這個墨西哥投手有亞洲臉的感覺 11/11 13:49
480Fje321654: ^Q^ 11/11 13:49
481Fhcastray: 承認爪爪很弱很難嗎 一直拿20:3嘲笑自己幹嘛 11/11 13:49
482Ftheropod: 這球有尾勁嗎???????????? 11/11 13:49
483Flanx105: 沒救了 11/11 13:49
484FShawnny: 金咼貝占口乞走巳來 11/11 13:49
485Fevo7798: 墨西哥春風來個紅中 11/11 13:49
486Fsodabing: 想不到墨西哥棒球這麼強 11/11 13:49
487Fwiwi12345678: 投手坐船回來,打者游泳回來吧 11/11 13:49
488FAlicuu: 笑死 11/11 13:49
489Fjamessytba: 我也想要大怒灌 11/11 13:50
490Fb69: 這些打者平常都很會打長打 怎麼國際賽打不出來 11/11 13:50
491Fcoolfishman: 阿阿阿阿 加油阿 11/11 13:50
493Fallyp7985: 都150 11/11 13:50
494Flovejamwu: ^Q^ 怎麼這樣.... 11/11 13:50
495Flwd15: 鍋貼在煮了 11/11 13:50
496Fwei09955104: kkkkkkkkk 11/11 13:50
497Fjash0910: 開始150連發了 11/11 13:50
498FGodYi: 投手好像陳韻文 11/11 13:50
499FBusufu: K 11/11 13:50
501Fstocktonty: 會指叉 11/11 13:50
502FEvoque: 我難過 11/11 13:50
503Fwsxcdsvv: 小號瘋狂走音 哪隊的領走 11/11 13:50
504FJoshBell: 每隻都150 11/11 13:50
505Fbryan1802016: 大怒灌可以先開了 11/11 13:50
506FHiddenGuy: M1 11/11 13:50
507Fpkwelly: 1kkkkkk 11/11 13:50
508Fagod10823: 打線真的太差了 11/11 13:50
509Ftheropod: 又是150.............這球有尾勁嗎? 11/11 13:50
510FINBOOCHILAI: 陳韻文? 11/11 13:50
511Fddkkz2003: do 11/11 13:50
512Fchiayu0722: 小胖炸他 11/11 13:50
513FCastle88654: 失投球都… 11/11 13:50
514Ftrylin: 我聞到鍋貼的香氣了 大家筷子準備一下 11/11 13:50
515Fmioloveme: 打者兩場一分跟人家吃什麼鍋貼 11/11 13:50
516Ftue678: 4年奧運應該沒有棒球 等到有奧運 這批選手應該都老了 11/11 13:50
517Fjordan1227: 老闆 招牌10個 酸辣湯1碗 11/11 13:50
518Ferain: 又是一個白天打不習慣的節奏 11/11 13:50
519FFKUMD: gg 11/11 13:50
520Fmothforever: 0分只有鴨蛋吃 沒鍋貼這種好康 11/11 13:50
521Fa129634: GGGGG 11/11 13:50
522FBenbenyale: QQ 11/11 13:50
523Fchaobii: M1 11/11 13:50
524Fcream4260: m1... 11/11 13:50
525Fmsekili: 因為種花聯盟是自嗨聯盟阿 11/11 13:50
526Feippuy: 打擊數十年來如一日 11/11 13:50
527Fpriston: 台灣小朋友:我們長大要跟他們不一樣! 11/11 13:50
528Fchihchingho: FO 2OUT 11/11 13:50
529Fpengjoker: M111111 11/11 13:50
530Fiamandre: 這場輸 你還寄望韓國輸墨 明天要贏韓 很難 11/11 13:50
531Fnolimits: 這代表中信兄弟的投手群超爛的吧 11/11 13:50
532Fkayamayuzo: 秋陽讓人想睡個午覺。 11/11 13:50
533FRoystu: 沒在跑的 M1 11/11 13:50
534FMessi100: M1...... 11/11 13:50
535Ftransfight: 中職打者又要出怪聲羅 11/11 13:50
536FHiSop: ================這就是我們的三 四 棒 哈哈哈哈========== 11/11 13:50
537Fneo19: 鳥飛 11/11 13:50
539Fsdfsonic: GG 11/11 13:50
540FSuperBMW: 墨西哥 8-2贏美國耶;雖敗猶榮啦!!!!!!!!!!!! 11/11 13:50
541Finfoa42: M1 11/11 13:50
542Fabxtpml56: 最後一人了 11/11 13:50
543Ftnl0716: 一直貼那個圖的可以水桶嗎 看了很煩 11/11 13:50
544Ftsai1453: 欸中華隊的勝利都被爪酸人品敗掉了 11/11 13:50
545Fhu6111: M1 11/11 13:50
546Fdaniel1344: 沒什麼好怒的吧 就打者沒發揮 這在預賽就知道了 11/11 13:50
547Fs310213: 看下來王柏融在中職裡面還是最頂尖之一... 11/11 13:50
548Fstocktonty: 承認墨西哥投手進步很難? 11/11 13:50
549FSokaStar218: 涼了 11/11 13:50
550FKyameron: M1 11/11 13:50
551Fhyun5566: RRRRRRR 11/11 13:50
552Fchiayu0722: 哭 11/11 13:50
553FColantoni: 一群國內王 11/11 13:50
554Fkeyt99130: 88888888888 11/11 13:50
555Fhenryhao: ... 11/11 13:50
556Fj32072: 墨西哥要贏囉 11/11 13:50
557FClutchShot: 打擊數十年來如一日 11/11 13:50
558Fadjj8644: 不滾了 用飛的 11/11 13:50
559Fhbkgod619: 下班了吧 各位辛苦了 11/11 13:50
560Fpwokiy: 吃鍋貼了 11/11 13:50
561Fallyp7985: 怎麼打都是鳥滾鳥飛 11/11 13:50
562Fspicy305: 今天這種哪叫鍋貼 11/11 13:50
563Fvul3kuo: 平常都打熟球,遇到陌生對手就不會打 11/11 13:50
564FRose5566MVP: 用三振秀結束這場比賽 11/11 13:50
565Fcool28051775: 8888888 11/11 13:50
566Fddreamer: M1 11/11 13:50
567Fkai880323: 6強1準備我們來了 11/11 13:50
568Ftriplebaka: M1 11/11 13:50
569Fje321654: 比賽現在才開始!! 11/11 13:50
570Fsosmall77: 又打高 11/11 13:50
571FOceanAdin: 明天見 11/11 13:50
572Fvvnbear: 紅中智將,換志豪上來死一次,不然每一個出局都會有人推 11/11 13:50
573Fericf129: 唉 11/11 13:50
574Fvvnbear: ,寧願換志豪上來尻一發,用想的都很容易轟 11/11 13:50
575Fsamuncle123: 爛到笑 真的可悲 11/11 13:50
576Fjoywo: 如果墨西哥的隊服是黃色的 保證CT很會打 11/11 13:50
577Fjames8180818: 回家吧 11/11 13:50
※ 編輯: gay8219 (36.236.117.7 臺灣), 11/11/2019 13:52:38
578Fnolimits: 總冠軍被打成那個樣子 11/11 13:50
579Fchiayu0722: 好吧 11/11 13:50
580Faszxdc12: 好了 收工了 11/11 13:50
581Fmonkeydpp: [email protected]@ 11/11 13:50
582Fmimiwang: 可以認真上班了 11/11 13:50
583Faqqz123: Q___Q 11/11 13:50
584FAlicuu: 八成又是說 學習之旅 11/11 13:50
585Ffg008kimo: 台灣的打擊真的蠻弱的... 11/11 13:50
586Fphoenix927: 好慘阿= = 11/11 13:50
587Fmingyu608: 我吃很飽不想再吃鍋貼QQ 11/11 13:50
588Fks99flame: M1 11/11 13:50
589Fuf1276: 再見... 11/11 13:50
590Fidc80035: gg 11/11 13:51
591Fbire: 888888888 11/11 13:51
592FLuckyTrump: 速球打不好 變化球又不會打 11/11 13:51
593Fpkwelly: 帥 11/11 13:51
594Feippuy: 沒在怕輸的 11/11 13:51
595Fbelucky: 投手我給100分 打者全部參加冬盟好嗎 11/11 13:51
596Fwiwi12345678: 投手在幹嘛,就知道打者得不了分了還丟2分...... 11/11 13:51
597FPTHMAN: 請問六搶一的關鍵是? 樓下幫補選項 11/11 13:51
598Fs984421: 大王你到日本了 我們怎麼辦? 11/11 13:51
599Fsleepmilk: 不要放棄 11/11 13:51
600Flittlegreen: 球評開始吃鍋貼了 11/11 13:51
601Fapestage: 完全沒有期待感 11/11 13:51
602Fdaniel1344: 只是最好的先發這場用掉了 不太妙 11/11 13:51
603Fshenasu: 最後一打席 11/11 13:51
604Fknml: 鍋貼味 11/11 13:51
605Fwpd: 鳥飛 連外野手原地距離都打不到 11/11 13:51
606Ff99999993: 出局如風 11/11 13:51
607Fmaple0425: 大家可以解散了 11/11 13:51
608Fbeautyptt: 輸墨2分真的不丟臉 11/11 13:51
609Fznck: 廢到死 11/11 13:51
610Fnewhop520: 自嗨聯盟 11/11 13:51
611Ffrlair: 連2隻HR就追平惹喇~ 夢中見 11/11 13:51
612Fwei0204: 好啦 可以去迪士尼了 11/11 13:51
613FAlun021: 墨西哥投手真的舒服 11/11 13:51
614FRose5566MVP: 沒有 還是坐著 11/11 13:51
615Frappig: 老墨投手有比日本強嗎 連安打都擠不出來 11/11 13:51
616Flovejamwu: Q_Q 11/11 13:51
617Fjamessytba: 八強三還是這批人 我天天黑到爆 11/11 13:51
618Fkero0331: 我秀加油 11/11 13:51
619Fmsarthur: 秀秀串起來啊 11/11 13:51
620FphHAR: 有夠鳥 11/11 13:51
621Fjipq6175: 這不叫鍋貼啦 實力不如人沒資格吃 11/11 13:51
622Fbobwang: 阿米夠強強的 11/11 13:51
623Fs6525480: 台灣打擊教練一定有問題 球哪有飛遠過 11/11 13:51
624Ffujioqq: 千葉有什麼好玩的阿 11/11 13:51
625Fcolonel05: 說好的四棒海呢 11/11 13:51
626Fsuchagenius: 打線烙賽 11/11 13:51
627FChita5566: 打都打不出去還鍋貼 11/11 13:51
628Fwei09955104: 鍋貼是不是該起鍋了? 再放要燒焦了 11/11 13:51
629Fvincentlin25: 王還是公務員打法 沒啥長打 11/11 13:51
630FLIUACH: 沒在贏的 11/11 13:51
631Fvinceliao: 紅中ㄧ臉無奈 11/11 13:51
632Fivery2266: 跪求上壘! 11/11 13:51
633Fntusimmon: 好悲催的打擊...還不如只有鋒恰的中華隊.... 11/11 13:51
634Famercedes: 會有奇蹟出現嗎?... 11/11 13:51
635Fak904: 沒資格吃鍋貼啦 11/11 13:51
636Fwhitebk: 拜了 11/11 13:51
637Fpwokiy: 買大分打小分 買中華 輸墨西哥 靠 11/11 13:51
638Fcream4260: 可惜投手們的好表現 11/11 13:51
639Fichdrgn: 88 11/11 13:51
640Fcookiey: 今天打者被完全壓制 11/11 13:51
641Fmatico: 今天吃了九局的甜甜圈啦 11/11 13:51
642FRanceTsai: 紅中每個都不打 牛逼 11/11 13:51
643Fprtscn: 又佈陣 11/11 13:51
644FSuperBMW: 整批去迪士尼玩囉~~~~~~~ 11/11 13:51
645Fmaple0425: 不敬禮 就地解散 11/11 13:51
646Fnolimits: 這走向複賽應該全輸 11/11 13:51
647Fsmile6615: 打擊教練要換了吧!熄火太久了吧 11/11 13:51
648Fboggy: 鍋貼起鍋啦~ 11/11 13:51
649Foutzumin: 雖敗猶榮 雖敗猶榮 雖敗猶榮 雖敗猶榮 雖敗猶榮 雖敗猶 11/11 13:51
650Fedweepvp: 想想美國都被得8分了 不錯了啦 11/11 13:51
651Flovensr: 打擊完全不行 11/11 13:51
652Fsft005: 開ubereats找鍋貼囉 11/11 13:51
653Fcarmanlee6: 愛將野球 11/11 13:51
654Fdowntown: 別再拿小孩掙來的積分自慰了,自請降排名吧 11/11 13:51
655FLewisRong: 沒什麼好酸的啊 就打擊跟國際水準還有一段差距 11/11 13:51
656Fmonkeydpp: HR!!! 11/11 13:51
657Fmioloveme: 大王可以回去秋訓了吧 剛好二軍基地滿近的 11/11 13:51
658Fkai880323: 準備抓戰犯 11/11 13:51
659Fikaros35: 15球內結束 11/11 13:51
660FParuruChan: 中職彌:承認打者很 11/11 13:51
661FFKUMD: 睡吧 夢裡什麼都有 11/11 13:51
662Fkmtkmtkmt: 承認打者變強很難嗎 11/11 13:51
663Faa97531aa: 要結束囉~~ 11/11 13:51
664Fvinceliao: 沒在怕的加油 11/11 13:51
665Fsilverstris: kkkkkkkkkkkkkkkkkkkkkkkkkkkkk 11/11 13:51
666FYadsmood: 千葉有老鼠樂園 11/11 13:51
667Flikewen11033: 投手怎麼這麼像陳韻文 11/11 13:51
668Fnewage5566: 今天是早不打,明晚冷不打,給點牡蠣吧 11/11 13:51
669Fpwokiy: 紅中真的三聲無奈 11/11 13:51
670Ftue678: 6搶1 更不用期待 國內也不可能會全力支援 誰理你 11/11 13:51
671FBichiB7b7: 棒協:6搶1門票可以開始定價了 11/11 13:51
672Fsnow1502001: 為何老莫這麼強 11/11 13:51
673Fedward801022: 瑞安都能在中職無安打,比他還強打不好不是很正常 11/11 13:51
674Fedward801022: 嗎? 11/11 13:51
675Fkicker: 在國內每個都很會轟 出國就鳥滾鳥飛 11/11 13:51
676FJasperChang: 打者進步很多 棒棒有希望 聽說的 11/11 13:51
677Fmaymay82407: 這就是我們自豪的打線啦 ~ 11/11 13:51
678Fkashnes: 回家了 回家了 11/11 13:51
679FClutchShot: 我秀加油啊! 11/11 13:51
680Fallen8213: 我們打這484不會打速球 11/11 13:51
681Fbear10272002: 8888 11/11 13:51
682FTS28: 投手頭等艙 打者睡貨櫃艙 11/11 13:51
683FGetMoney: hi~罵咖~~你們好呀cc 11/11 13:51
684Fneo19: https://imgur.com/pDC7vHO 11/11 13:51
685Frufugy: 承認中職打擊進步很難? 11/11 13:51
686Fnick741225: 直接殺去迪士尼放鬆一下啦~大家太緊繃了~ 11/11 13:51
687Fmothforever: 第一球好球有打過嗎? 站好站滿 11/11 13:51
688Ffujioqq: Amigo>>>>>>>>>>>>Lamigo 11/11 13:51
689FPagan: 最近打了兩場18局只得一分 11/11 13:51
690Fhyde711034: 事實證明投手怎麼排都可以,反正打線打不回來 11/11 13:51
691FFKUMD: 幹你娘主審 11/11 13:51
692Fft090646: 來個再見三振 11/11 13:52
693Feippuy: 恰恰都不看了 11/11 13:52
694Fznck: 當初八搶三 是怎麼爆打老墨啊 差好多喔 11/11 13:52
695Fandy3242001: 第一球好球都不打 第二球壞球就揮棒 11/11 13:52
696FHiSop: ============三 四 五棒 都是那一隊出產 快來領回去======= 11/11 13:52
697FfoRestMan: 至少上個壘啊 11/11 13:52
698Fstocktonty: 承認墨西哥投手進步很難? 11/11 13:52
699Flpc95: 還好先攻…投手下班了 11/11 13:52
700Fmonkeydpp: HR 樓下1000p 11/11 13:52
701FHOLYXXXX: 打高投低? 我笑了 11/11 13:52
702Fprtscn: K味濃 11/11 13:52
703Fbryan1802016: 好球??? 11/11 13:52
704FBenbenyale: 鍋貼秀秀 11/11 13:52
705FAABCD: https://i.imgur.com/7OvPjM7.jpg 我先開動了 11/11 13:52
706Fhu6111: 中職四棒海 11/11 13:52
707Fallyp7985: 這球蠻外的吧???? 11/11 13:52
708FTWKaner: 海了點 11/11 13:52
709Fmsarthur: 檢三小 11/11 13:52
710Famas: 難得這麼想看陳俊秀打全壘打啊啊啊啊 11/11 13:52
711Fgalleon2000: 國內打者聯盟,國際賽就... 11/11 13:52
712Foutzumin: 恭喜今天買墨西哥的捧由 11/11 13:52
713Fa27783322: 操雞掰 等尻尻 11/11 13:52
714Fy772938: 爪寶好意思 11/11 13:52
715Fblackbear21: 為什麼要進複賽被虐????? 11/11 13:52
716Fivery2266: 跪求上壘! 11/11 13:52
717Fjackyliu: 唉 吱打者真弱 11/11 13:52
718Fv2ssili: 趕下班的好球帶 = = 11/11 13:52
719Fmilleniue: 這位去年在A+ ERA 5.01.... 11/11 13:52
720FLAKobeBryant: 趕下班了 11/11 13:52
721Faa97531aa: 三振秀~ 11/11 13:52
722FJoshBell: 趕下班 11/11 13:52
723FJayferrari: 整個沒信心了……GG 11/11 13:52
724Fsppray: 外角,干 11/11 13:52
725FAtkins13: 乾脆整隊帶去迪士尼玩好了 11/11 13:52
726FLewisRong: 現在旅美打者也沒幾隻 沒辦法跟以前一樣靠徵招 11/11 13:52
727FHiddenGuy: GG 0-2 11/11 13:52
728Ftue678: 自己球隊戰績比較重要 奧運資格賽沒多重要 11/11 13:52
729Ftowierc: 開始找千葉景點去玩一下就可以回國了 11/11 13:52
730Fpengjoker: KKKKKKK 11/11 13:52
731Fbnb89225: LM真的很爛 11/11 13:52
732Fismydear: 難怪要徵召主委 哈哈 11/11 13:52
733FFKUMD: 886 11/11 13:52
734FIDfor2010: 老闆 來一份鍋貼口味的 TACO BELL 11/11 13:52
735Fak904: 這樣還想搭商務艙 11/11 13:52
736FBenbenyale: GGGGGGGGGGGGGGGGGGGGGG 11/11 13:52
737Fjkl852: gg 11/11 13:52
738Fprtscn: 再見 11/11 13:52
739Fcream4260: 被k 11/11 13:52
740FIcoolIam: 今天戰犯是不會take的岳東華嗎 11/11 13:52
741FPTHMAN: 8888888888 11/11 13:52
742Fiverson0968: 唉 11/11 13:52
743FShawnny: 鍋貼吃起來 11/11 13:52
744Fjic5817: 鍋貼 11/11 13:52
745Fchinandxian: 爛死了 11/11 13:52
746Fgnr210: 快不打慢不打左不打右不打 11/11 13:52
747Fppumpkin: 太海了吧... 11/11 13:52
748Fstocktonty: 電風扇~~~~~~~~~~~~~~~~ 11/11 13:52
749Fchihchingho: KKK Game Set 11/11 13:52
750Fa129634: 8888888 11/11 13:52
751Ffju402392: 三振秀 11/11 13:52
752Fkairiyu: 可以開始準備一日球迷廢文大賽囉XDDDDDDDDDDDD 11/11 13:52
753FAxwell: K 11/11 13:52
754Fidc80035: gg 11/11 13:52
755Fs6525480: 爛透了 11/11 13:52
756Flittlegreen: 實力問題 11/11 13:52
757Fkai880323: 抓戰犯 11/11 13:52
758Finfoa42: gg 11/11 13:52
759Faqqz123: Q____Q 11/11 13:52
760FSaza: ............... 11/11 13:52
761Fnanco5566: ggggggggggggg 11/11 13:52
762Ffrlair: 空振 11/11 13:52
763Fs984421: 中職自爽聯盟 11/11 13:52
764FSuperBMW: KKKKKKKKKKKKKKKKKK 11/11 13:52
765Fderekg8: 少了圓夢主審某隊都不會打了 11/11 13:52
766Fvvnbear: 承認墨西哥都洋將很難嗎? 11/11 13:52
767Fwilliam85: 乾 11/11 13:52
768Fo22117417tw: 哈 11/11 13:52
769Fddkkz2003: 再見三振 11/11 13:52
770Fsamuncle123: zzzzzzzzz 11/11 13:52
771Ftrylin: 三振秀廢 11/11 13:52
772FClutchShot: 吱吱台灣大賽不是很猛?? 11/11 13:52
773Famercedes: 煩 11/11 13:52
774Fwhitebk: 888888888 11/11 13:52
775Fvince730828: 掰 11/11 13:52
776Fcool28051775: GGGGGGGG三振秀 11/11 13:52
777Fiqzvfact: 廢到笑 11/11 13:52
778Fehgcmlkk8544: 三振秀 11/11 13:52
779Fwiwi12345678: 投手的鍋吧...就已經知道打者得不了分了還掉分... 11/11 13:52
780Fa126451026: 掰 11/11 13:52
781FBichiB7b7: 8888888 11/11 13:52
782Ftransfight: 出國鬆一下 耶耶耶耶 11/11 13:52
783Fericchen0725: 8888 11/11 13:52
784Fting445: 乾 11/11 13:52
785Fyuetsu: 爛透了 11/11 13:52
786FShowOffDerek: GGGGGGGGG 11/11 13:52
787Fchang505: 無言 11/11 13:52
788Fwei0204: 鍋貼 11/11 13:52
789Fericf129: 打擊聯盟???? 11/11 13:52
790Fwhite75724: 這種打擊能進複賽真是奇蹟 波委根本佛心隊 11/11 13:52
791Fneohung: 烙賽 11/11 13:52
792FphHAR: 888888 11/11 13:52
793Fkero0331: 我難過 11/11 13:52
794Fapplejone: K GG 11/11 13:52
795Fchargebro: 靠,真的三振秀 11/11 13:52
796FKreen: 鍋貼好了 https://i.imgur.com/icU3Rhn.jpg 11/11 13:52
797Fseafood520: 買單 11/11 13:52
798FChrisPaul03: 嘻嘻 11/11 13:52
799Fkerkercheng: 哀 11/11 13:52
800Fsky825: 整天說貴古賤今 結果一打國際賽也沒變強過 11/11 13:52
801Fshauyuan: 照鄉民邏輯兩隊各坦一局 11/11 13:52
802Fbookalan: 三振秀 11/11 13:52
803Ffallish: QQ 11/11 13:52
804Fhousesirking: 11/11 13:52
805Flittlegreen: 再見KKKKKKKKKKKKKKKKKKKKKKKKKK 11/11 13:52
806Fbnbn0012300: 覺得投手蠻像A-jie的XDDD 11/11 13:52
807Fpharhan: 88888 11/11 13:52
808Fyeeandrew: 悶爆的比賽啊 11/11 13:52
809Fknml: 888888888888 11/11 13:52
810Fe8177919e: 爛 11/11 13:52
811Fkutkin: http://i.imgur.com/iV3SEwS.jpg 學長我們也要 11/11 13:52
812FHiSop: ===這就是我們三 四 五棒 都是那一隊出產 快來領回去====== 11/11 13:52
813Fseg42727: 三振秀 11/11 13:52
814Fwsxcdsvv: 三振秀 11/11 13:52
815Ferodora: 口乞金咼貝占口羅 11/11 13:52
816Fmsekili: 笑死 一堆國內王 11/11 13:52
817FLAKobeBryant: 輸囉 11/11 13:52
818FSaza: 爪酸還在酸八上??? 11/11 13:52
819Faalove: gggggggggggggggggggggg 11/11 13:52
820Fddtin: 廢死 11/11 13:52
821Flunqun35: 還在想抓放XDDDDDDD笑死 11/11 13:52
822Fbking: 要開放大怒灌了嗎? 11/11 13:52
823FEQUP: 唉 結束了 11/11 13:52
824Fmk000000: 去讀期中考了 掰掰 11/11 13:52
825FCHLinBT: qq 11/11 13:52
826FRanceTsai: 在揮什麼 那個姿勢根本沒出力吧? 11/11 13:52
827Fmar5566: 鍋貼好吃嗎!!! 11/11 13:52
828Fimuthat: 哭哭 11/11 13:52
829FePaper: 收工 11/11 13:52
830Fchenstar1234: 謝謝你桃猿 11/11 13:52
831Fpriston: 還可以下班去迪士尼喔XDDDDD 11/11 13:52
832Flittlesheepy: 輸惹 11/11 13:52
833Fzxsx811: 三振秀 11/11 13:52
834FGhostShadow: 對比墨西哥預賽成績,只丟兩分很不錯了其實 11/11 13:52
835FSatoman: 鍋貼好ㄘ 11/11 13:52
836Fhandfoxx: 中職喪屍四棒海 11/11 13:52
837Fiqzvfact: 這打擊聯盟哈哈 11/11 13:52
838FZachBritton: 奧運88888888 11/11 13:52
839FHANKYU: 沒辦法真的霽不如人 11/11 13:52
840Frestart1234: 8888 11/11 13:52
841Fforcebear: 悽悽慘慘戚戚 11/11 13:52
842FKazmier: 下一場把蘇擺中心打線好嗎? 345棒打這樣看到快吐血 11/11 13:52
843Fsilverstris: 神~~~~~預~~~~~~言 11/11 13:52
844FSuperBMW: 代購去囉!! 11/11 13:52
845Faa97531aa: 哈哈哈哈哈 11/11 13:52
846Fjay1105zz: … 11/11 13:52
847FLeMirage2000: 辣味鍋貼 11/11 13:52
848Fiam0718: 哀哀 11/11 13:52
849Fb69: 超...爛 的拉 11/11 13:52
850FHamiltion22: 就說233完全不行..還選他佔位子 11/11 13:52
851Fihczfu: 三振秀 11/11 13:52
852Fko373328: 愛將野球三廢棒 11/11 13:52
853FMinyunyun: 優秀 11/11 13:52
854Ffaelone: 早知道就不打進複賽了 11/11 13:52
855Ftpmstr111: QQ 11/11 13:52
856FAABCD: 廢到笑 11/11 13:52
857Fjeff95123: 三振秀 11/11 13:52
858Foaoa524: 三振秀 11/11 13:52
859Fmtyk10100: 爛 11/11 13:52
860Fsustainer123: 日常 不意外 11/11 13:52
861Fhwp1006: 三振秀 11/11 13:52
862Fxian: 四棒海笑死 死海嗎 11/11 13:52
863Foorange290: 打擊好爛,三安 11/11 13:52
864Fbiutiholic: qqqqq 11/11 13:52
865FBansar: 慘 11/11 13:52
866FLewisRong: 江投超好結果敗投QQ 11/11 13:52
867Fiq20777: 三振秀 廢到有剩 11/11 13:52
868Flegendd: gggggggg 11/11 13:52
869FColantoni: 好難看的比賽 11/11 13:52
870Fjustdoit: 酸民熱身準備 11/11 13:52
871Fjef820501: 爛爛爛爛爛爛死了 11/11 13:52
872FRoystu: 四棒海 最近2場18局 吃18顆蛋 XDDDDDDDDDDD 11/11 13:52
873FNDubz: 技不如人 11/11 13:52
874Fqqyi: 又不是每個好球打了都會安打 11/11 13:52
875Fjuin0913: 88888888888888 11/11 13:52
876Fjerrylin: 今天中華隊空振到底幾次了 11/11 13:52
877Foutzumin: 高不打 低不打 外部打 內部打 幹你娘 11/11 13:52
878Fzhonghui: 鍋貼 11/11 13:52
879Fnick741225: 投手很棒了 11/11 13:52
880Fpink0518: 竟然沒了 11/11 13:52
881Ftheropod: 中直真悲哀 11/11 13:52
882Fbnb89225: LM永遠一直上不用被換代打 11/11 13:52
883Fsdd815345: 睡好睡滿 11/11 13:52
884Fapestage: 陳俊秀這次好慘 11/11 13:52
885FTS28: 這個給Cole投也贏不了 因為永遠0分^^ 11/11 13:52
886Ftakuminauki: 差人太多了 11/11 13:52
887Ffutang: 掰 11/11 13:52
888Fweizxcvb: 爛 11/11 13:52
889Fmayday8888: 0:2了 可以回家了 11/11 13:52
890Fstocktonty: 承認國外主審好球帶比較寬很難? 11/11 13:52
891Fbasketone: 完全沒氣勢 11/11 13:53
892FERiC0308QQ: 幹您娘外角海 11/11 13:53
893Fichiro0805: 三振秀 11/11 13:53
894Fhu6111: 三振秀 11/11 13:53
895Fdaniel1344: 能進複賽已經不錯了 第一輪打線就很便祕了 11/11 13:53
896Fdowattw2005: 浪費投手 11/11 13:53
897Fhyd789: 抓戰犯大賽開始 11/11 13:53
898Fallyp7985: 感覺沒特別的戰犯 全隊才三支安打怎麼贏 一分都沒 11/11 13:53
899Fbelucky: 請改用最低彈力球好嗎 投手進步沒用 打者根本像弱雞 11/11 13:53
900Fgrasscyc: 墨西哥要繼續去迪士尼玩了 11/11 13:53
901Fbelucky: 一樣被屠殺 11/11 13:53
902Fkd1523: 八局死了三個兄弟,九局死了三隻吱吱 11/11 13:53
903Fcream4260: 墨西哥完全把握住機會 11/11 13:53
904Fboodharu: 打者排成一列跟投手道歉吧 11/11 13:53
905Fjjam: 整隊打擊超爛 11/11 13:53
906Ffmradio: ㄧ分都沒拿吃什麼鍋貼 輸了剛好而已 11/11 13:53
907Fkicker: 波委是狂送禮啊 你以為是靠打擊嗎 11/11 13:53
908FKyameron: 六搶一我們來囉~ 11/11 13:53
909Fsosmall77: 國際賽真的只要落後就連追平都有困難 11/11 13:53
910Feklcxo: 星光票還來得及 11/11 13:53
911Flovejamwu: ......我覺得投手很好..但打線實在太爛了.... 11/11 13:53
912FAceCash: 三振秀不ey 11/11 13:53
913Fkairiyu: 墨西哥外野手超無聊 莫名其妙就贏了XDDDDDDDDDDDDD 11/11 13:53
914FJelen: ^^ 11/11 13:53
915Fr3479zx873: 米糕一堆國內王 笑死 11/11 13:53
916Fj32072: 墨西哥 小分 賺錢好簡單 11/11 13:53
917FKasmirLo: 爛 11/11 13:53
919FLMGlikeshit: 三振秀無誤 11/11 13:53
920Fujythi: 000000000000000000000000000的領域 11/11 13:53
921Fthomas52: 秀真的變守備組 11/11 13:53
922Fprbaseball: 吱迷道歉好嗎 11/11 13:53
923FnbaliveX: 鳥打聯盟 廢到笑 11/11 13:53
924Fwoulin: 老墨也只打三安 11/11 13:53
925FClutchShot: 吱吱台灣大賽不是很猛????? 11/11 13:53
926Fwei09955104: 對面好像覺得很無聊 11/11 13:53
927Fericrobin: 恭喜台北隊敗的即時 11/11 13:53
928FHamiltion22: 秀秀秀 三振秀 11/11 13:53
929Fdai26: 謝謝,掰掰 11/11 13:53
930FCsongs: 我們幾個安打? 11/11 13:53
931Fdyrus: 這種打擊我看複賽一場都贏不了 11/11 13:53
932Fgreenleaf520: KKK KKK KKK KKK 11/11 13:53
933Fnthomas: 今天根本只有投手在比賽 11/11 13:53
934Fpowernba: 打不到球QQ 11/11 13:53
935Fremix110525: 這345 哪一場比賽有貢獻的?場場上 是不想贏是不是? 11/11 13:53
936Fs6525480: 啊搭飛機回來了啦 全關機回家養生 11/11 13:53
937Fjerrylin: 出局就算了 至少摸到球啊 11/11 13:53
938FNumber9527: 丟臉 11/11 13:53
939Fbitcheggs: 三振秀 中心打線笑死 11/11 13:53
940Ftf310244: 得點圈便秘成那樣 多敲一支安早就贏了 11/11 13:53
941Fet10tw: 打線真的慘 11/11 13:53
942Fkendokashin: 熟悉的中華隊 最對味 11/11 13:53
943Fo22117417tw: 這場輸沒奧運機會了吧 11/11 13:53
944Fshy668: 技不如人 11/11 13:53
945Flosa: 貧打 11/11 13:53
946Ffg008kimo: 這種爛隊可以進複賽 真的蠻扯的 11/11 13:53
947Fjerrychien06: 一堆國內打的嚇嚇叫 國際賽打得吃懶覺 11/11 13:53
948Ff01237542: 國內爽就好 出去笑死人 11/11 13:53
949Fpichu215: 樂天是不是買錯球隊了 11/11 13:53
950Flittlegreen: 可以去迪士尼了 11/11 13:53
951Fwpd: 兩個打擊聯盟對陣 3安vs3安 可是別人有長打 XXD 11/11 13:53
952Ftransfight: 中職打者又要出怪聲囉 11/11 13:53
953Ftsaodin0220: 得點圈0-6 就算之後張奕完封也不會得分有屁用 11/11 13:53
954FDarkKnight: XD 誰要坦 11/11 13:53
955Fapestage: 陳俊秀不適三振就是雙殺耶XDDDDDDDDDDDDDDD 11/11 13:53
956Fjsstarlight: 打者真的不行 11/11 13:53
957Fyhc1130: 說不出什麼話了.... 11/11 13:53
958Fluisak: 打擊真的滿爛的 11/11 13:53
959Frotusea: 打者通通都寄託運?那要順便檢疫一下嗎?XD 11/11 13:53
960Fzelldincht: 打線真是爛透了 11/11 13:53
961Fhbkgod619: 爛死了 這場比打日本還難看 打日本至少有上壘 現在連 11/11 13:53
962Fhbkgod619: 殘壘都沒 11/11 13:53
963Feippuy: 明天派誰壓鎮? 11/11 13:53
964Fhcastray: 爪今天0安0BB 然後爪寶來笑吱吱 黑人問號 11/11 13:53
965Fsmile6615: 國內吃餵球 出國吃鍋貼 11/11 13:53
966Fji385k6: 米糕三連星真棒呢 比我爪多拖了幾球才死 呵呵 11/11 13:53
967Fdoasgloria: 這三棒在中職這麼猛 在外面廢到笑 11/11 13:53
968Fpink0518: 給投手鼓勵 11/11 13:53
969Fwillywasd: 各3支安打 慘 11/11 13:53
970FEggXBlueSky: 爛鍋貼 11/11 13:53
971Fjay0215: 最後是2:0 比我預測的7:1好上太多了 爽啦!~^^/ 11/11 13:53
972FSlamKai: 坐六望五搶四 掰掰 11/11 13:53
973FKelite: 我是陽岱鋼在家裡一定笑很爽 選一堆小丑 11/11 13:53
974Fcarmanlee6: 爛 11/11 13:53
975Fnthomas: 45棒真的慘 11/11 13:53
976Fsabrina1113: 國際賽還在分隊煩死 11/11 13:53
977Fntusimmon: 鋒恰還能得分 號稱平均的打線一分都沒 11/11 13:53
978Fvul3kuo: 不期不待 對韓國能破蛋就不錯了 11/11 13:53
979Fvillagemen: 起鍋 11/11 13:53
980FRanceTsai: 每個國內都很會打數據很好看 結果國際賽一分都打不回 11/11 13:53
981Fft090646: 三振秀。第一球紅中有夠甜的球還不打 11/11 13:53
982FRanceTsai: 來 11/11 13:53
983FHong18: QQ 11/11 13:53
984Fkevin45632: 外野手真的無聊 笑死 11/11 13:53
985Flhy11: 中華貧打沒藥醫 11/11 13:53
986Fdsauqt: 我現在覺得鋒哥和恰恰根本是神 11/11 13:53
987Fwei0204: 蚌邪: 我好興奮啊 11/11 13:53
988Fba113399: 真的是笑死 11/11 13:53
989Fpiolet: 墨西哥強的 只是有台灣有期待 11/11 13:53
990FphHAR: 還想打奧運啊 11/11 13:53
991Frappig: 扯 這麼暴力的打線 一分都打不下來== 11/11 13:53
992Fpreg: 恭喜三振秀 11/11 13:53
993Fapestage: 中心打線崩盤 11/11 13:53
994Fddir: 女高中生棒球 11/11 13:53
995Fprotoss666: 不意外 哈哈哈 11/11 13:53
996Fjpjp927: 打擊聯盟?? 11/11 13:53
997Fhassmetou: 三振秀來的超快XDDD 11/11 13:53
998FAtkins13: 墨西哥又要去迪士尼放風了 羨慕 11/11 13:53
999Fmothforever: 不想殘壘被說嘴 只好不上壘了 穩嗎 11/11 13:53
1000Fb69: 都輸了 還不開放 發文喔 11/11 13:53
1001Fji394tb: 便秘打線 11/11 13:53
1002Fhyde711034: 明天再變陣一下吧 11/11 13:53
1003Fsasadog: 老墨還不用補那一分 一發全壘打就定勝負== 11/11 13:53
1004Fsnow1502001: 晚上要幫米國加油 11/11 13:53
1005Fxian: 吱爪連線都超廢 XDDDDDDD 11/11 13:53
1006Fwei09955104: 鍋貼已燒焦 11/11 13:53
1007FBBBears: 打擊到底怎麼回事 11/11 13:53
1008Fjucci9734: 投手超棒,投手做頭等艙回家,野手搭貨艙回家就好 11/11 13:53
1009Fclusis: 米糕的打擊者只能打中職嗎? 11/11 13:53
1010Fseg42727: 笑死 一堆國內王 11/11 13:53
1011Foutzumin: 一堆紅中不打 是在等下班喔... 11/11 13:53
1012Faaaa4122: 奧運out 11/11 13:53
1013Fmhkt: 死屍打線 名不虛傳 11/11 13:53
1014Ftheropod: 就說中直不會打150,還一堆人說有尾勁 11/11 13:53
1015FJoshBell: 最強的都輸了 明天也沒望了 11/11 13:53
1016Flunqun35: 9局沒得分:沒關係 打擊內容好 11/11 13:53
1017Fk1400: 謝謝選手 謝謝轉播員 11/11 13:53
1018Fhansingi: 這場吱爪打線別再這樣排了 11/11 13:53
1019Fdannylin11: 沒什麼好抓的 全隊都打得很爛 11/11 13:53
1020Fedward801022: 吱吱猛?不是對手太弱嗎? 11/11 13:53
1021FHiSop: ================可以去問 小玉 日本那邊鍋貼好吃======== 11/11 13:53
1022Fglobekiller: 就靠人家神佈陣才進複賽的啊XD 11/11 13:53
1023FEQUP: 投手讓墨西哥只拿2分 日本隊也不見得做得到 11/11 13:53
1024Fsustainer123: 233現在是232吧 反正講YOH紅粉就崩潰 不講了 11/11 13:53
1025Fremix110525: 投手這麼拼 這麼猛 打者睡幾輪了? 11/11 13:53
1026Fichiro0805: 3安?彈力球打太多不會打了? 11/11 13:53
1027Fhester90333: 中心打線冷颼颼 11/11 13:53
1028FSaza: 第一局就1BB 要不要先看眼科? 11/11 13:53
1029Fstocktonty: 現在知道其實大王真的中職最強無誤XD 11/11 13:53
1030FOceanAdin: 墨西哥還沒輸 11/11 13:53
1031FMattiaPasini: 口乞金咼貝占口拉 11/11 13:53
1032Fgn02160940: 他們自拍 xddd 11/11 13:53
1033Fyangbaobao: 打線真的該跪投手 今天三個投手都沒話說 11/11 13:53
1034Fsaw6904: 我想命運已經確定了,就是打六搶一,因為對韓、美絕對是 11/11 13:53
1035Flegendd: 沒鋒恰怎贏 11/11 13:53
1036Fmayday8888: 0W2L想進奧運 笑死XD 11/11 13:54
1037Fplayer8: 辛苦了!再接再厲 11/11 13:54
1038Fsfw2579: 這群打線你們對得起投手嗎 11/11 13:54
1039Fyabegirl25: 兩隊安打數都少 就是得不了分 11/11 13:54
1040Fprtscn: 墨西哥大合照是嘲諷我大中華嗎? 11/11 13:54
1041Fxkiller1900: 打線呵呵 11/11 13:54
1042Fhsmeal: 鋒恰永不退流行 11/11 13:54
1043Fmomo28: 推 sy1995: 先猜13球結束這場比賽←←←好神 11/11 13:54
1044FEQUP: 可惜打者一如既往的爛 11/11 13:54
1045Fkicker: 這種打線還不選陽 不想贏嗎 11/11 13:54
1046FLeo4891: 這種打擊 我上去打也一樣 11/11 13:54
1047Flu2509: 嗚嗚QQ 11/11 13:54
1048FLewisRong: 中職就打擊自嗨聯盟啊XD 國際賽打擊完全被壓制 11/11 13:54
1049Fkindaichi21: 老板: 打工仔~外送大單來了 賺死了~ 11/11 13:54
1050FClutchShot: 紅中四五棒死不換 11/11 13:54
1051Ftzcoba01: 三振秀國內王無誤 11/11 13:54
1052Flhy11: 打擊能這麼爛也不容易 11/11 13:54
1053Fprotoss666: 鍋貼熱囉~~~球迷的臉就綠了 11/11 13:54
1054Fleonjapan: 沉睡的打線 被接力完封 11/11 13:54
1055FLorazin: 分析ㄧ下六搶一吧 11/11 13:54
1056Fgache0824: 日本大比分贏讓你得一分,小比分就知道了,被完封 11/11 13:54
1057Fsaw6904: 全敗 11/11 13:54
1058FSlamKai: 韓國誠實 台灣打擊弱 11/11 13:54
1059FLMGlikeshit: 不得不說中職裁判該放寬好球帶了 不然國際賽根本不適 11/11 13:54
1060Fvince730828: 想念鋒哥阿>"< 11/11 13:54
1061Fdaleey056: 檳榔嘴做收尾 11/11 13:54
1062Fmsekili: 放心 最後一場找澳洲洗數據 大家就又忘記了 11/11 13:54
1064Falcloth: 連同日本那場 18局得1分 11/11 13:54
1065Fsl072132000: 好多蛋 11/11 13:54
1066Fallyp7985: 鋒恰真的是神xd 有對比才知道 11/11 13:54
1067Ffujioqq: 二進制的打線是想要贏誰 11/11 13:54
1068Fetop: 中職笑死聯盟 11/11 13:54
1069Fko373328: 牡蠣迷:承認中職打擊進步很難嗎? 11/11 13:54
1070Fpriston: 問陳陳大丈夫 哪裡好玩 11/11 13:54
1071Fstrikeman: 原來小玉沒那麼差...國內王真的一堆... 11/11 13:54
1072Fkayamayuzo: 兩隊不握個手?仇很大? 11/11 13:54
1073Firon999: 說個笑話 台灣打者進步 11/11 13:54
1074FLMGlikeshit: 應啊 11/11 13:54
1075Fcsyhri: 怒吃20顆鍋貼 11/11 13:54
1076Fchaobii: 誰投都一樣最後都會輸,不要再扯不掉分氣勢就會上來了哦 11/11 13:54
1077Fiholanpart2: 打擊要加油啊。可惜了 11/11 13:54
1078Fonly3v: 馬的 桑心 難受...... 11/11 13:54
1079FTamama56: 戰犯就是HiHi了 https://youtu.be/CwnLCb_leuI 11/11 13:54
1080Fddtin: 笑死聯盟 11/11 13:54
1081FAABCD: 商務艙勒 抗球棒游回來吧 11/11 13:54
1082FAJhe0924: 整場三安打被完封還不叫鍋貼喔 太牡蠣了吧= = 11/11 13:54
1083Fkenike: 哪來8搶3?一日迷 11/11 13:54
1084Fyankees733: 中華隊保底第六不意外 11/11 13:54
1085FCarmelo3: 嗨嗨可以準備做六搶一分析了 11/11 13:54
1086FOo5566: 說搭貨艙回家也太沒品 球員也是盡力打球了 11/11 13:54
1087FTWKaner: 打擊真的不行 11/11 13:54
1088FNumber9527: 投手群回國可以頭等艙 其餘用游泳回來 各位覺得如 11/11 13:54
1089Fs955346: 酸民再嘴阿 這下打不到球就不會被罵跑壘態度了 11/11 13:54
1090Fzembrata: 江少慶可惜了...... 11/11 13:54
1091Fbnb89225: 洪一中排什麼爛打線 11/11 13:54
1092Fkix8083: gg 11/11 13:54
1093Fboringgenius: 果然三振秀 11/11 13:54
1094Ftrylin: 就說小玉現在回中職還是屌打 你各位還不信XDD 11/11 13:54
1095FLewisRong: 沒有鋒哥這種一棒定江山的根本打不出去 11/11 13:54
1096Fyocobra: 打擊聯盟 這樣母湯 11/11 13:54
1097Fk1222: http://i.imgur.com/dlHyEdJ.jpg 11/11 13:54
1098Fwiwi12345678: 打者有進步啦,都是投手爛,沒事丟兩分給打者壓力幹 11/11 13:54
1099FYanOH: 投手投出12k 打者... 11/11 13:54
1100Fcityman9999: 果然成棒就是分水嶺,U12看墨西哥都被打假的 11/11 13:54
1101Fbutton: 均速145以上就沒轍 中職再歡樂下去啊..... 11/11 13:54
1102Fgache0824: 日本那一分讓的好嗎 11/11 13:54
1103FmaxLOVEmimi: 中職舒適圈過太爽 11/11 13:54
1104Feippuy: 除了有好投有打安打守備其他自己坐LCC 11/11 13:54
1105Fsmile6615: 果然是屍速列車 站著被三振 11/11 13:54
1106Fs221090: 打擊真的弱 還想奧運 11/11 13:54
1107Ftheropod: 每次國際賽都被說守備不積極,今年繼續說哪裡出問題要改 11/11 13:54
1108Fo22117417tw: 六搶一什麼時候開打? 11/11 13:54
1109Flichiayang: 阿慶真的猛 11/11 13:54
1110Ftwtyh: 我是紅中 下一場第三棒我就排彭政閔,反正頂多一樣打不出來 11/11 13:54
1111Fhn9480412: 都一堆E就不要太期待了 11/11 13:54
1112FphHAR: 沒得分還想吃鍋貼喔 11/11 13:54
1113FHiSop: =======可以去問 小玉 日本那邊鍋貼好吃======日本他很熟== 11/11 13:54
1114Fxian: 爽 真的要全敗啦 偉哉四棒海 11/11 13:54
1115Fdiiky: 好慘! 11/11 13:54
1116FPf2you: 四海遊龍 11/11 13:54
1117Fjerrychien06: 國內聯賽水準要提高才是真的 趕快增隊吧 11/11 13:54
1118Fwiwi12345678: 嘛zz 11/11 13:54
1119Frotusea: 可以先把升頭等艙的費用省下來了 11/11 13:54
1120Fagod10823: 我們需要陽 11/11 13:54
1121Fszu32lu2: 江跟投手群 謝謝QQ 11/11 13:54
1122Fdsauqt: 中職那個好球帶該放大了別在自爽了 11/11 13:55
1123FMacheteKerKe: 承認打擊進步很難嗎 11/11 13:55
1124Fonly3v: 國內王太多了......藍瘦香菇 11/11 13:55
1125FLeo4891: 中職就歡樂聯盟 11/11 13:55
1127FAtkins13: 坐著玩躺著玩趴著玩 還是撞到睪丸 11/11 13:55
1128Fmagicqw: 中華隊目前還沒有那種可以關鍵時刻一棒打回來的人 11/11 13:55
1130Fosvaldo4040: 六搶一我們旅外投手會剩幾個XD 那時候都要準備球季了 11/11 13:55
1131Fcicigogo33: 爪0安還能笑吱 11/11 13:55
1132FKingChang711: 給我抓戰犯!不抓戰犯,警察局可以收了 11/11 13:55
1133FAABCD: https://i.imgur.com/mDhGgbK.jpg 11/11 13:55
1134Ffrank755190: 一堆雜魚 軟手王 11/11 13:55
1135Findium111: 台灣一向投大於打,旅外選手成績就很清楚了 11/11 13:55
1136Fshifa: 鍋貼是有來有往,便秘沒分數離鍋貼還差得遠了 11/11 13:55
1137Frocky9137: 反串嗎 打者全部從東京灣游回台灣 11/11 13:55
1138Fjkokpcu: 墨墨這場投手很有水準 給推 11/11 13:55
1139Fs984421: 小玉算了吧 300pa wrc+82 自殺棒 11/11 13:55
1140Fichdrgn: 中職打線 Gg. 11/11 13:55
1141Ftwtyh: 但是肯定有選球 11/11 13:55
1142Fjsstarlight: 覺得連期待感都無從寄託 11/11 13:55
1143Flovensr: 投手沒得挑剔了啦.... 11/11 13:55
1144FKazmier: 蘇智傑可以回中心打線了吧? 345棒爛成這樣 11/11 13:55
1145Ftue678: 明天吱隊選手全部一起回國吧 反正也打不好 剩下比賽 就 11/11 13:55
1146FSABA0: 平常酸旅外打者,結果自己養的也沒比較好啊 11/11 13:55
1147Fsmile6615: 145都打不到 什麼水準 11/11 13:55
1148FEQUP: Cole來投都輸定了 11/11 13:55
1149Fikaros35: 我去打也是零分 11/11 13:55
1150Ffrank755190: 可悲肥料隊 11/11 13:55
1151Fko373328: 反正只是要打短安,以後找短槍就好,四棒海三振秀 11/11 13:55
1152Fbnb89225: 狀況比較好的代打不然就排後面,狀況差的擺中心 子弟兵 11/11 13:55
1153Ftheropod: 用嘴巴說要改,然後腦子想的是約............跑步 11/11 13:55
1154Fs6525480: 牡蠣迷出發去接人回來 不是怕受傷 快回來了啦 11/11 13:55
1155FEricOu0218: 至少投手意外穩,不然以往可能就大比分輸球了w 11/11 13:55
1156Fwww81306: 看來今天的關鍵就是josh幫台灣加油了 11/11 13:55
1157Fak904: 打擊爛成這樣還想吃鍋貼 11/11 13:55
1158Fmhkt: 四五棒堅持那兩位有用嗎…… 被守備佈陣 到爽 11/11 13:55
1159Fmagicqw: 老胡自己已經很努力讓局面有利了... 11/11 13:55
1160Ffg008kimo: 增隊要有啦 但國內養成加油好嗎 看韓國養成多厲害 11/11 13:55
1161Fkashnes: 也好啦 趕快淘汰 說不定後面比賽沒負擔打線會不會回來 11/11 13:55
1162FEQUP: 0分中華隊 11/11 13:55
1163Fbnb89225: 不會被換代打 11/11 13:55
1164Fjonny1170: 國內的投手真的要加油.... 11/11 13:55
1165Ftue678: 交給其他選手 11/11 13:55
1166FZhuangZi5566: http://i.imgur.com/IVFL6Cr.jpg 快出發還趕得及夜 11/11 13:55
1167Fhousesirking: 明天毫無期待感 11/11 13:55
1168Fjackyliu: 唉 最重要的一局三個出局數都同一隊的 11/11 13:55
1169Fstocktonty: 我還是來去回顧當年鋒哥打達比修全壘打好了 11/11 13:55
1170Fhcastray: 爪今天連上壘都沒有真的沒吱吱好 11/11 13:55
1171Fedward801022: 戰績迷崩潰開酸囉 11/11 13:55
1172Fpreg: 從預賽到現在,除了林立的全壘打以外,還沒一隻真正的長打 11/11 13:55
1173FIMUU: 噓wiwi 還投手的鍋勒 反串還是真秀下限? 11/11 13:55
1174Fandy055097: 承認投手進步很難嗎? 11/11 13:55
1175Fallyp7985: 棒次是可以調一下 還有要不要讓老胡打DH啊? 11/11 13:56
1176FZhuangZi5566: 間遊行 11/11 13:56
1177Fsding: 實力有差 輸的不冤 11/11 13:56
1178Fjjam: 大王還是相對比較能打的啊 還要說其他人去能比他好嗎XD 11/11 13:56
1179Fxian: 國內王真是笑死人 11/11 13:56
1180Fwiwi12345678: 你行你上啊,ㄏ,打成這樣還真的我上都行 11/11 13:56
1181Fjjam: 只是證明中職打擊水準就是爛啊 11/11 13:56
1182Fntusimmon: 一堆國內強打狂領KKKK 11/11 13:56
1183Fbutton: 均速比國內快好幾個檔次 中職真的太歡樂了 11/11 13:56
1184Flawyer94: 27局只得1分 11/11 13:56
1185Fgirafa: 謝謝轉播 11/11 13:56
1186Fak904: 還有一支慢跑的長打XDD 11/11 13:56
1187Feippuy: 明天死馬活馬醫 11/11 13:56
1188Fs984421: 相對比較能打 11/11 13:56
1189Fsmile6615: 一屆不如一屆 11/11 13:56
1190Fkicker: 真的被完封派系隊打擊也一樣的結果 11/11 13:56
1191Fmhkt: 四五兩棒不換 紅中堅持成這樣 11/11 13:56
1192Ftue678: 說真的已經無感 早點淘汰不是好事 明天基本上沒機會 11/11 13:56
1193Ftheropod: 增隊也沒屁用阿,你想看6隊都是這種守備嗎? 11/11 13:56
1194Fseg42727: 好慘喔 由此可見國內投手真的爛 11/11 13:57
1195Fsustainer123: 有個日職成績更好的(茶 11/11 13:57
1196Fvillagemen: 郭嚴文安打了 小新第七局 11/11 13:57
1197Fxian: 找猴子來打說不定還比較好 嘻嘻 11/11 13:57
1198Fko373328: 愛將野球,噁心 11/11 13:57
1199Ffg008kimo: 別搞笑了 中職本來就1A 每次只想靠旅外 根本不切實際 11/11 13:57
1200Fa100205069: 你說被冰整季hr還比較多那位嗎 11/11 13:57
1201Fdsauqt: 鋒恰根本跟鬼一樣 11/11 13:57
1202Ftue678: 明天就換手氣 整套先發換掉 換另一組 11/11 13:57
1203Fshifa: 增隊還要配上FA交易鬆綁才可以促進競爭強度 11/11 13:57
1204Fpaul810928: 全隊都蠻爛的,也沒必要挑個別球員酸了 11/11 13:57
1205FBalaBalaDaBa: 這次打擊真的是 貧弱!貧弱ゥ! 11/11 13:58
1206FOyAlbert: 鍋貼惹 11/11 13:58
1207Flittlegreen: 恰 鋒 大師兄 永遠的中心棒次 11/11 13:58
1208FTawara: 熟悉的鍋貼最對味 給點牡蠣吧 11/11 13:58
1209Fsmile6615: 全部換代打 轉爛打線 11/11 13:58
1210Fichdrgn: 國內被捧,國外被踩。 11/11 13:58
1211Fmioloveme: 一屆不如一屆是十年沒看國際賽嗎w 11/11 13:58
1212Ftheropod: 並不會促競好嗎? 11/11 13:58
1213Frock74228: 還是以前的中華隊比較有期待 11/11 13:58
1214Feippuy: 中職解散啦 11/11 13:58
1215Fs984421: 不選陽選至寶的代價 11/11 13:58
1216Flittlegreen: 可能高志綱還比較強 11/11 13:58
1217FTawara: 對了打擊教練是誰 嘻嘻 11/11 13:59
1218Fmegalink: 鍋貼正常發揮打線貧的跟鬼差不多 11/11 13:59
1219Ftheropod: 守備在國內是永遠不會進步的~~~~~~~~ 11/11 13:59
1220Fwaylank1234: 現在是沒啥期待,因為沒有期待沒有傷害,哈哈哈 11/11 13:59
1221Feippuy: 高起碼運氣強XD 11/11 13:59
1222Frock74228: 鋒 恰 大師兄 火哥 泰山 11/11 13:59
1223Fichdrgn: 墨:叫你總a出來打啦 11/11 14:00
1224FA0091127: 正常發揮 吃很飽 11/11 14:00
1225Fstrikeman: 墨西哥聯盟就高階1A而已喔..中職迷再吹自己有2A-3A的水 11/11 14:00
1226Fiddqd: 奧運門票離胎灣越來越遠了! 11/11 14:00
1227Fstrikeman: 準呀....狠狠打臉... 11/11 14:00
1228Fshinichi: 國球贏球迷開酸了 各種奇妙言論在出籠了 11/11 14:01
1229Fbardiel1209: 大家辛苦了 11/11 14:01
1230Fkingtseng: 鍋貼開吃 11/11 14:01
1231Fj3307002: 準備出門吃鍋貼 11/11 14:01
1232Fpbs90107: 外角海太誇張,不過這場真的打得漂亮 11/11 14:01
1233Fshinichi: 上屆連複賽都沒有 打進去都能酸 一日迷真棒棒 11/11 14:02
1234FPhySeraph: 吃鍋貼啦 11/11 14:03
1235Fhitomi47: 結果233洋砲打最好 11/11 14:03
1236Fsignm: 沒在贏的,沒在打的 11/11 14:05
1237Feippuy: 樓上XDD 11/11 14:06
1238Feippuy: 實力不如人沒進奧運也好啦。 11/11 14:07
1239FChen7: 加油啊 11/11 14:08
1240Fmysecret: 代購團 11/11 14:09
1241FImPG0702: 不如我阿嬤去打 反正都是K 11/11 14:10
1242Fdido0208: 出國比賽才能體現真實力 11/11 14:14
1243Fletmesee3085: 1111吃鍋貼有沒有比較便宜!! 11/11 14:19
1244FLoveMakeLove: 種花四不打:快不打、慢不打、怪不打、左不打 11/11 14:20
1245Fted40905: 誰吹中職有2A-3A(笑 3A回來都可以保證一二輪了 11/11 14:31
1246FQorqios: 啊啊啊啊啊 11/11 14:35
1247Fsmile6615: 只有投手可以看 11/11 14:37
1248Fwayne0215: 笑死!根本樂樂棒球 11/11 14:43
1249Fsimo520: 四海遊龍 11/11 14:56
1250Fiddqd: 打擊還是鳥鳥.... 11/11 15:01
1251Fiddqd: 奧運門票.... 11/11 15:05
1252Fdadavidlee: … 11/11 15:06
1253Fusaku: 奧運又沒啦 11/11 15:10
1254Fkingkinggod: 一打國際賽就現原形了,稍微強一點的就回家 11/11 15:15
1255Fwinteryoyo: 台灣人不能誇,梅花越冷越開花。下去囉 11/11 15:16
1256Fkingkinggod: 還嗆別人一日球迷咧,說你們資深球迷更丟臉,這種爛 11/11 15:18
1257Fkingkinggod: 棒球還支持成這樣? 11/11 15:18
1258Fthechen: QQ 11/11 15:23
1259Fobeytherules: 下去啦 11/11 15:27
1260Fpuresugar: 下去探親囉 11/11 15:41
1262Fjesse0921: 當初8搶3台灣是地主,也是靠一堆骯髒手段婊墨西哥 11/11 15:54
1263Fja1295: 送自己下去 11/11 16:08
1264Forange0319: 投手群被調教成這麼強,結果打線在做什麼??? 11/11 16:15
1265Fkamisanma: 腦迷別再盲目護航了 11/11 16:16
1266Fiddqd: 拿奧運門票難度更高了! 11/11 16:32
1267Fjosiam: 優質職棒 11/11 16:35
1268Fjosiam: 吃鍋貼?夠資格嗎?吃屎可以 11/11 16:45
1269Fgiaour: 國球變國糗了 11/11 16:47
1270Fiblue5616: 中職打擊率林立0.389陳俊秀0.381林泓育0.350朱育賢0.34 11/11 17:20
1271Fiblue5616: 7這種鬼神打擊率 國際賽打成這樣?? 11/11 17:21
1272Ftsubasau4x: 搞代購嗎? 11/11 17:38
1273Fdmc80: 8888888888888 11/11 17:38
1274FSkyisworld: 預測對韓7:0 11/11 18:13
1275Fs463074: 樓上有神 11/12 22:55

Baseball 看板熱門文章

36 [分享] 陳偉殷FB
41 baseball innocent8675 2019/11/21 23:50:26
-2 Re: [分享] 陽岱鋼 FB
63 baseball cloud654 2019/11/21 23:09:27

最新熱門文章